Regional Weather Roundup
Issued by NWS

Home | Current Version | Previous Version | Graphics & Text | Print | Product List | Glossary On
Versions: 1 2 3 4 5 6 7 8 9 10 11 12 13 14 15 16 17 18 19 20 21 22 23 24 25 26 27 28 29 30 31 32 33 34 35 36 37 38 39 40 41 42 43 44 45 46 47 48 49 50
000
ASUS43 KIND 141559
RWRIN

WEATHER ROUNDUP FOR INDIANA
NATIONAL WEATHER SERVICE INDIANAPOLIS IN
1100 AM EST THU DEC 14 2017

NOTE: "FAIR" INDICATES FEW OR NO CLOUDS BELOW 12,000 FEET WITH NO
SIGNIFICANT WEATHER AND/OR OBSTRUCTIONS TO VISIBILITY.

* - STATION DOES NOT REPORT WEATHER SUCH AS PRECIPITATION OR FOG.

+ - STATION NOT QUALITY CONTROLLED BY THE NATIONAL WEATHER SERVICE.
    USE DATA WITH CAUTION...ESPECIALLY DEWPOINT AND RELATIVE
    HUMIDITY OBSERVATIONS.

INZ001>003-010>013-019-020-141700-
NORTHWEST INDIANA

CITY           SKY/WX    TMP DP  RH WIND       PRES   REMARKS
GARY /AIRPORT/ PTSUNNY   23  16  74 W12       30.09R WCI  12
MONTICELLO +   CLOUDY    22  11  62 CALM      30.07R

$$

LMZ046-743>745-141700-
SOUTHERN LAKE MICHIGAN

STATION/POSITION TIME  TEMP    WIND        PRES    WAVE
                       AIR SEA DIR/SP/G            HT
                 (UTC) (F)     (DEG/KT/KT) (MB)    (FT)
BURNS HARBOR     1540   22     190/ 10/ 21 1018.6R
MICHIGAN CITY    1530   19     130/  8/ 11   N/A

$$

INZ004-005-014>016-021>024-141700-
NORTH CENTRAL INDIANA

CITY           SKY/WX    TMP DP  RH WIND       PRES   REMARKS
ELKHART        CLOUDY    18   9  68 E5        30.06  WCI  11
GOSHEN         MOSUNNY   15   6  67 CALM      30.06R
PERU/GRISSOM   CLOUDY    21  14  73 E6        30.05R WCI  13
SOUTH BEND     CLOUDY    17  10  74 S5        30.08R WCI  10

$$

INZ006>009-017-018-025>027-141700-
NORTHEAST INDIANA

CITY           SKY/WX    TMP DP  RH WIND       PRES   REMARKS
FORT WAYNE     PTSUNNY   20   9  62 CALM      30.07R
KENDALLVILLE + MOSUNNY   14   7  73 E3        30.04R

$$

INZ028-029-035-036-043>045-051>053-141700-
WEST CENTRAL INDIANA

CITY           SKY/WX    TMP DP  RH WIND       PRES   REMARKS
LAFAYETTE      CLOUDY    28  12  51 NE9       30.07R WCI  19
TERRE HAUTE    CLOUDY    30  19  63 N9        30.07R WCI  22

$$

INZ030>032-037>040-046>048-054>057-064-065-141700-
CENTRAL INDIANA

CITY           SKY/WX    TMP DP  RH WIND       PRES   REMARKS
COLUMBUS       SUNNY     27  12  54 N9        30.06R WCI  17
INDIANAPOLIS   MOSUNNY   28  13  53 NE13      30.05R WCI  17
-EAGLE CREEK   SUNNY     27  13  55 NE9       30.05R WCI  18
KOKOMO +       MOSUNNY   22  16  78 VRB5      30.06R WCI  16
MT COMFORT *+  SUNNY     25  18  74 NE10      30.05R WCI  15
SHELBYVILLE    MOSUNNY   26  15  63 N7        30.05R WCI  18

$$

INZ033-034-041-042-049-050-058-059-141700-
EAST CENTRAL INDIANA

CITY           SKY/WX    TMP DP  RH WIND       PRES   REMARKS
MUNCIE         PTSUNNY   24  15  68 N6        30.05R WCI  17
RICHMOND +     CLOUDY    21  18  86 N6        30.03R WCI  14

$$

INZ060-061-067>069-081>083-085>088-141700-
SOUTHWEST INDIANA

CITY           SKY/WX    TMP DP  RH WIND       PRES   REMARKS
EVANSVILLE     CLOUDY    32  22  66 N7        30.08R WCI  26
HUNTINGBURG +  CLOUDY    32  22  66 NW6       30.05R WCI  26

$$

INZ062-063-066-070>080-084-089>092-141700-
SOUTH CENTRAL AND SOUTHEAST INDIANA

CITY           SKY/WX    TMP DP  RH WIND       PRES   REMARKS
BLOOMINGTON    CLOUDY    30  18  60 N9        30.04R WCI  22
SEYMOUR +      MOSUNNY   32  14  47 N13       30.05R WCI  22

$$




USA.gov is the U.S. government's official web portal to all federal, state and local government web resources and services.